TimeCST,TemperatureF,Dew PointF,Humidity,Sea Level PressureIn,VisibilityMPH,Wind Direction,Wind SpeedMPH,Gust SpeedMPH,PrecipitationIn,Events,Conditions,WindDirDegrees,DateUTC
12:15 AM,73.4,62.6,69,29.91,10.0,Calm,Calm,-,N/A,,Overcast,0,2013-01-29 06:15:00
12:35 AM,73.4,62.6,69,29.89,10.0,SSE,13.8,17.3,N/A,,Overcast,150,2013-01-29 06:35:00
12:55 AM,73.4,62.6,69,29.89,10.0,SSE,13.8,18.4,N/A,,Overcast,150,2013-01-29 06:55:00
1:15 AM,73.4,62.6,69,29.89,10.0,SSE,12.7,21.9,N/A,,Overcast,160,2013-01-29 07:15:00
1:35 AM,73.4,62.6,69,29.88,10.0,SSE,15.0,24.2,N/A,,Overcast,150,2013-01-29 07:35:00
1:55 AM,73.4,62.6,69,29.88,10.0,SSE,13.8,-,N/A,,Overcast,160,2013-01-29 07:55:00
2:15 AM,73.4,62.6,69,29.88,10.0,SSE,4.6,-,N/A,,Overcast,160,2013-01-29 08:15:00
2:35 AM,73.4,62.6,69,29.88,10.0,SSE,11.5,17.3,N/A,,Overcast,160,2013-01-29 08:35:00
2:55 AM,73.4,62.6,69,29.86,10.0,SSE,10.4,-,N/A,,Overcast,150,2013-01-29 08:55:00
3:15 AM,73.4,62.6,69,29.85,10.0,SE,4.6,-,N/A,,Overcast,140,2013-01-29 09:15:00
3:35 AM,73.4,64.4,73,29.85,10.0,Calm,Calm,-,N/A,,Overcast,0,2013-01-29 09:35:00
3:55 AM,73.4,64.4,73,29.85,10.0,Calm,Calm,-,N/A,,Overcast,0,2013-01-29 09:55:00
4:15 AM,73.4,64.4,73,29.85,10.0,Calm,Calm,-,N/A,,Overcast,0,2013-01-29 10:15:00
4:35 AM,73.4,64.4,73,29.84,10.0,SSE,13.8,17.3,N/A,,Overcast,150,2013-01-29 10:35:00
4:55 AM,73.4,62.6,69,29.83,10.0,SSE,8.1,-,N/A,,Overcast,160,2013-01-29 10:55:00
5:15 AM,73.4,62.6,69,29.83,10.0,SSE,12.7,19.6,N/A,,Overcast,160,2013-01-29 11:15:00
5:35 AM,73.4,62.6,69,29.83,10.0,SSE,9.2,12.7,N/A,,Overcast,160,2013-01-29 11:35:00
5:55 AM,73.4,62.6,69,29.83,10.0,SSE,15.0,19.6,N/A,,Overcast,150,2013-01-29 11:55:00
6:15 AM,73.4,62.6,69,29.83,10.0,SSE,11.5,18.4,N/A,,Overcast,150,2013-01-29 12:15:00
6:35 AM,73.4,62.6,69,29.83,10.0,SE,11.5,16.1,N/A,,Overcast,140,2013-01-29 12:35:00
6:55 AM,73.4,62.6,69,29.83,10.0,SSE,8.1,-,N/A,,Overcast,150,2013-01-29 12:55:00
7:15 AM,73.4,62.6,69,29.83,10.0,SSE,8.1,-,N/A,,Overcast,150,2013-01-29 13:15:00
7:35 AM,73.4,62.6,69,29.80,10.0,SSE,10.4,-,N/A,,Overcast,150,2013-01-29 13:35:00
7:55 AM,73.4,62.6,69,29.80,10.0,SSE,9.2,18.4,N/A,,Overcast,150,2013-01-29 13:55:00
8:15 AM,73.4,62.6,69,29.80,10.0,SSE,12.7,18.4,N/A,,Overcast,150,2013-01-29 14:15:00
8:35 AM,73.4,62.6,69,29.79,10.0,SSE,12.7,-,N/A,,Overcast,150,2013-01-29 14:35:00
9:15 AM,73.4,62.6,69,29.77,10.0,SSE,15.0,20.7,N/A,,Overcast,150,2013-01-29 15:15:00
9:35 AM,75.2,62.6,65,29.77,10.0,SSE,20.7,28.8,N/A,,Overcast,150,2013-01-29 15:35:00
9:55 AM,77.0,60.8,57,29.75,10.0,SSE,18.4,29.9,N/A,,Overcast,150,2013-01-29 15:55:00
10:15 AM,77.0,60.8,57,29.74,10.0,SSE,20.7,27.6,N/A,,Overcast,150,2013-01-29 16:15:00
10:35 AM,77.0,60.8,57,29.73,10.0,SSE,19.6,31.1,N/A,,Overcast,160,2013-01-29 16:35:00
10:55 AM,77.0,60.8,57,29.71,10.0,SSE,18.4,31.1,N/A,,Overcast,150,2013-01-29 16:55:00
11:15 AM,78.8,59.0,51,29.70,10.0,SSE,23.0,33.4,N/A,,Overcast,160,2013-01-29 17:15:00
11:35 AM,78.8,59.0,51,29.71,10.0,South,26.5,33.4,N/A,,Overcast,170,2013-01-29 17:35:00
11:55 AM,78.8,59.0,51,29.71,10.0,South,23.0,34.5,N/A,,Overcast,170,2013-01-29 17:55:00
12:15 PM,78.8,59.0,51,29.69,10.0,SSE,20.7,27.6,N/A,,Overcast,160,2013-01-29 18:15:00
12:35 PM,78.8,59.0,51,29.65,10.0,SSE,20.7,27.6,N/A,,Scattered Clouds,150,2013-01-29 18:35:00
12:55 PM,80.6,59.0,48,29.64,10.0,SSE,18.4,27.6,N/A,,Scattered Clouds,160,2013-01-29 18:55:00
1:15 PM,80.6,59.0,48,29.63,10.0,SSE,21.9,27.6,N/A,,Scattered Clouds,160,2013-01-29 19:15:00
1:35 PM,80.6,59.0,48,29.61,10.0,South,26.5,29.9,N/A,,Mostly Cloudy,170,2013-01-29 19:35:00
1:55 PM,82.4,59.0,45,29.60,10.0,South,20.7,27.6,N/A,,Mostly Cloudy,170,2013-01-29 19:55:00
2:15 PM,80.6,57.2,45,29.59,10.0,South,26.5,33.4,N/A,,Overcast,180,2013-01-29 20:15:00
2:35 PM,82.4,55.4,39,29.58,10.0,South,21.9,28.8,N/A,,Mostly Cloudy,180,2013-01-29 20:35:00
2:55 PM,82.4,55.4,39,29.57,10.0,South,23.0,28.8,N/A,,Scattered Clouds,170,2013-01-29 20:55:00
3:15 PM,82.4,55.4,39,29.56,10.0,SSE,21.9,28.8,N/A,,Mostly Cloudy,160,2013-01-29 21:15:00
3:35 PM,82.4,55.4,39,29.55,10.0,South,18.4,27.6,N/A,,Scattered Clouds,170,2013-01-29 21:35:00
3:55 PM,82.4,57.2,42,29.54,10.0,SSE,19.6,26.5,N/A,,Scattered Clouds,160,2013-01-29 21:55:00
4:15 PM,82.4,57.2,42,29.54,10.0,South,19.6,26.5,N/A,,Scattered Clouds,170,2013-01-29 22:15:00
4:35 PM,80.6,59.0,48,29.53,10.0,SSE,17.3,25.3,N/A,,Scattered Clouds,160,2013-01-29 22:35:00
4:55 PM,80.6,59.0,48,29.53,10.0,SSE,13.8,-,N/A,,Mostly Cloudy,160,2013-01-29 22:55:00
5:15 PM,80.6,59.0,48,29.53,10.0,SSE,13.8,18.4,N/A,,Scattered Clouds,160,2013-01-29 23:15:00
5:35 PM,78.8,59.0,51,29.54,10.0,SSE,13.8,21.9,N/A,,Clear,160,2013-01-29 23:35:00
5:55 PM,78.8,60.8,54,29.53,10.0,SSE,10.4,21.9,N/A,,Clear,160,2013-01-29 23:55:00
6:15 PM,78.8,60.8,54,29.56,10.0,SW,16.1,23.0,N/A,,Scattered Clouds,220,2013-01-30 00:15:00
6:35 PM,66.2,46.4,49,29.65,10.0,WNW,23.0,35.7,N/A,,Mostly Cloudy,300,2013-01-30 00:35:00
6:55 PM,60.8,51.8,72,29.66,4.0,NW,16.1,20.7,0.04,Rain,Heavy Rain,310,2013-01-30 00:55:00
7:15 PM,62.6,51.8,68,29.68,7.0,NW,8.1,16.1,0.05,Rain-Thunderstorm,Rain,320,2013-01-30 01:15:00
7:35 PM,62.6,48.2,59,29.71,7.0,NW,15.0,-,0.09,Rain-Thunderstorm,Thunderstorms and Rain,310,2013-01-30 01:35:00
7:55 PM,60.8,46.4,59,29.70,10.0,Calm,Calm,-,0.12,Rain,Light Rain,0,2013-01-30 01:55:00
8:15 PM,60.8,46.4,59,29.71,10.0,Calm,Calm,-,0.02,,Scattered Clouds,0,2013-01-30 02:15:00
8:35 PM,59.0,50.0,72,29.73,10.0,Calm,Calm,-,0.04,,Mostly Cloudy,0,2013-01-30 02:35:00
8:55 PM,59.0,50.0,72,29.75,10.0,Calm,Calm,-,0.05,,Mostly Cloudy,0,2013-01-30 02:55:00
9:15 PM,59.0,50.0,72,29.73,10.0,Calm,Calm,-,0.01,,Mostly Cloudy,0,2013-01-30 03:15:00
9:35 PM,60.8,48.2,63,29.75,10.0,Calm,Calm,-,0.02,Thunderstorm,Overcast,0,2013-01-30 03:35:00
9:55 PM,59.0,50.0,72,29.75,10.0,Calm,Calm,-,0.03,Rain,Light Rain,0,2013-01-30 03:55:00
10:15 PM,59.0,50.0,72,29.76,10.0,Calm,Calm,-,N/A,Rain,Light Rain,0,2013-01-30 04:15:00
10:35 PM,59.0,50.0,72,29.76,10.0,Calm,Calm,-,0.01,,Overcast,0,2013-01-30 04:35:00
10:55 PM,59.0,48.2,67,29.77,10.0,Calm,Calm,-,0.02,,Overcast,0,2013-01-30 04:55:00
11:15 PM,60.8,42.8,52,29.78,10.0,Calm,Calm,-,N/A,,Overcast,0,2013-01-30 05:15:00
11:35 PM,60.8,30.2,31,29.80,10.0,Calm,Calm,-,0.01,,Mostly Cloudy,0,2013-01-30 05:35:00
11:55 PM,60.8,26.6,27,29.80,10.0,Calm,Calm,-,0.01,,Mostly Cloudy,0,2013-01-30 05:55:00